This demonstration page uses our WeatherBlox Daily Observations layout. Learn more.

36.19886, -115.1175

Hourly Observations for November 17, 2019

Temp ( °F °C ) Dew Point ( °F °C ) Humidity (%) Winds ( mph kmh ) Pressure ( in mb ) Visibility ( mi km ) Precip ( " mm )
12:53 am 00:53 Clear 59 15 22 -5.6 24 24 N 6 9 30.15 1021 10 16.09344 0 0
1:53 am 01:53 Clear 60 15.6 20 -6.7 21 21 N 10 17 30.15 1021 10 16.09344 0 0
2:53 am 02:53 Clear 56 13.3 20 -6.7 24 24 NW 9 15 30.18 1022 10 16.09344 0 0
3:53 am 03:53 Clear 57 13.9 19 -7.2 23 23 NW 6 9 30.18 1022 10 16.09344 0 0
4:53 am 04:53 Clear 59 15 19 -7.2 21 21 NW 15 24 30.18 1022 10 16.09344 0 0
5:00 am 05:00 Clear 59 15 19 -7.2 21 21 NNW 13 20 30.12 1020 10 16.09344 0 0
5:53 am 05:53 Clear 60 15.6 21 -6.1 22 22 NNW 12 19 30.21 1023 10 16.09344 0 0
6:53 am 06:53 Sunny 59 15 22 -5.6 24 24 NNW 13 20 30.21 1023 10 16.09344 0 0
7:53 am 07:53 Sunny 62 16.7 22 -5.6 21 21 Calm 30.21 1023 10 16.09344 0 0
8:53 am 08:53 Sunny 65 18.3 23 -5 20 20 WNW 7 11 30.21 1023 10 16.09344 0 0
9:53 am 09:53 Sunny 69 20.6 24 -4.4 18 18 N 10 17 30.21 1023 10 16.09344 0 0
10:53 am 10:53 Sunny 71 21.7 24 -4.4 17 17 NE 7 11 30.18 1022 10 16.09344 0 0
11:53 am 11:53 Sunny 72 22.2 24 -4.4 17 17 Calm 30.12 1020 10 16.09344 0 0
12:53 pm 12:53 Sunny 75 23.9 23 -5 14 14 NE 3 6 30.09 1019 10 16.09344 0 0
1:53 pm 13:53 Sunny 75 23.9 21 -6.1 13 13 SE 5 7 30.06 1018 10 16.09344 0 0
2:53 pm 14:53 Sunny 76 24.4 21 -6.1 13 13 SSE 3 6 30.06 1018 10 16.09344 0 0
3:53 pm 15:53 Sunny 75 23.9 22 -5.6 14 14 S 7 11 30.06 1018 10 16.09344 0 0
4:53 pm 16:53 Clear 72 22.2 23 -5 16 16 S 5 7 30.06 1018 10 16.09344 0 0
5:53 pm 17:53 Clear 69 20.6 24 -4.4 18 18 W 3 6 30.09 1019 10 16.09344 0 0
6:53 pm 18:53 Clear 64 17.8 24 -4.4 22 22 NW 7 11 30.09 1019 10 16.09344 0 0
7:53 pm 19:53 Clear 61 16.1 23 -5 23 23 WNW 6 9 30.12 1020 10 16.09344 0 0
8:53 pm 20:53 Clear 59 15 22 -5.6 24 24 NW 6 9 30.09 1019 10 16.09344 0 0
9:53 pm 21:53 Clear 63 17.2 20 -6.7 19 19 NNW 6 9 30.09 1019 10 16.09344 0 0
10:53 pm 22:53 Clear 60 15.6 22 -5.6 23 23 S 3 6 30.09 1019 10 16.09344 0 0
11:53 pm 23:53 Clear 62 16.7 19 -7.2 19 19 N 9 15 30.06 1018 10 16.09344 0 0

Powered by AerisWeather